Waarnemingen

Advertentie
Mijn weer
Deauville, Frankrijk (7031): temperatuur & dauwpunt: 20.06.2019 10:00:00 - 26.06.2019 10:00:00 (CEST)Deauville, Frankrijk (7031): temperatuur 5cm: 20.06.2019 10:00:00 - 26.06.2019 10:00:00 (CEST)Deauville, Frankrijk (7031): windsnelheid & windstoten: 20.06.2019 10:00:00 - 26.06.2019 10:00:00 (CEST)Deauville, Frankrijk (7031): windrichting: 20.06.2019 10:00:00 - 26.06.2019 10:00:00 (CEST)Deauville, Frankrijk (7031): luchtdruk: 20.06.2019 10:00:00 - 26.06.2019 10:00:00 (CEST)Deauville, Frankrijk (7031): zicht: 20.06.2019 10:00:00 - 26.06.2019 10:00:00 (CEST)Deauville, Frankrijk (7031): neerslag: 20.06.2019 10:00:00 - 26.06.2019 10:00:00 (CEST)
Datum & Tijd tt [°C] td [°C] tt 5cm [°C] ff [km/u] ff [kn] fx [km/u] fx [kn] dd ppp [hPa] vv [km] rr [mm]
26.06.2019 10:00:00 21,9 18,1 20,8 11 6 27 15 NO 1023,3 17 0,0
26.06.2019 09:00:00 19,8 16,6 18,5 15 8 33 18 ONO 1023,1 10 0,0
26.06.2019 08:00:00 18,7 16,7 17,4 9 5 24 13 ONO 1023,4 6 0,0
26.06.2019 07:00:00 17,1 16,6 15,7 7 4 20 11 NO 1022,8 3,0 0,0
26.06.2019 06:00:00 16,5 16,0 15,1 8 4 18 10 NNO 1022,6 2,1 0,0
26.06.2019 05:00:00 16,3 16,0 14,0 8 5 16 8 NO 1022,3 3,2 0,0
26.06.2019 04:00:00 16,0 15,7 12,1 8 4 12 7 NNO 1022,5 4,2 0,0
26.06.2019 03:00:00 15,9 15,6 13,8 5 3 13 7 N 1022,9 3,7 0,0
26.06.2019 02:00:00 15,7 15,4 12,7 7 4 10 6 NNO 1022,9 5 0,0
26.06.2019 01:00:00 15,7 15,4 12,8 4 2 12 7 N 1022,9 0,9 0,0
26.06.2019 00:00:00 15,4 14,9 11,6 5 3 9 5 WNW 1022,8 2,9 0,0
25.06.2019 23:00:00 15,5 14,5 12,2 2 1 10 5 NO 1022,0 0,2 0,0
25.06.2019 22:00:00 16,7 15,2 15,7 4 2 11 6 NW 1021,7 10 0,0
25.06.2019 21:00:00 18,2 16,0 18,6 6 3 12 6 W 1021,5 18 0,0
25.06.2019 20:00:00 18,4 15,8 19,6 8 5 16 9 NNW 1020,8 19 0,0
25.06.2019 19:00:00 19,6 16,4 22,2 9 5 16 9 NW 1020,6 19 0,0
25.06.2019 18:00:00 18,7 15,8 21,9 10 6 22 12 NW 1020,4 17 0,0
25.06.2019 17:00:00 19,6 16,2 23,1 10 5 19 10 W 1019,9 20 0,0
25.06.2019 16:00:00 19,6 16,4 23,2 12 6 24 13 W 1019,6 17 0,0
25.06.2019 15:00:00 19,6 16,2 22,1 12 7 26 14 W 1019,4 17 0,0
25.06.2019 14:00:00 18,7 16,3 21,7 13 7 21 11 W 1019,1 15 0,0
25.06.2019 13:00:00 18,7 16,5 19,4 10 6 19 11 W 1018,5 11 0,0
25.06.2019 12:00:00 16,8 15,8 17,5 11 6 22 12 W 1018,0 8 0,0
25.06.2019 11:00:00 17,7 16,0 17,9 10 6 19 10 W 1017,2 12 0,0
25.06.2019 10:00:00 16,9 15,4 17,5 10 5 17 9 W 1016,9 10 0,0
25.06.2019 09:00:00 16,8 16,3 17,9 5 3 10 5 NNO 1016,3 16 0,0
25.06.2019 08:00:00 15,8 15,6 15,5 2 1 22 12 ZZW 1016,4 9 0,0
25.06.2019 07:00:00 15,0 14,8 14,7 10 5 26 14 ONO 1015,6 1,6 0,0
25.06.2019 06:00:00 14,8 14,6 14,2 14 8 26 14 NO 1015,8 1,3 0,0
25.06.2019 05:00:00 14,4 14,1 14,0 19 10 41 22 N 1015,8 4,1 0,0
25.06.2019 04:00:00 15,0 14,7 14,6 16 9 32 17 WNW 1017,0 2,6 0,0
25.06.2019 03:00:00 14,7 14,4 14,6 18 10 33 18 N 1015,5 1,0 4,1
25.06.2019 02:00:00 15,3 15,0 14,3 18 10 34 19 NW 1018,0 12 6,3
25.06.2019 01:00:00 14,8 13,8 14,4 7 4 27 15 WNW 1018,1 2,1 2,8
25.06.2019 00:00:00 16,5 13,6 14,9 14 7 29 15 N 1016,8 18 0,2
24.06.2019 23:00:00 16,9 13,6 16,0 14 7 29 15 N 1016,9 51 0,0
24.06.2019 22:00:00 17,2 14,8 16,6 14 7 29 15 N 1016,7 29 0,0
24.06.2019 21:00:00 17,3 15,6 17,1 8 4 19 10 NNW 1017,8 20 0,0
24.06.2019 20:00:00 17,9 15,9 18,4 5 3 17 9 WNW 1017,7 24 0,0
24.06.2019 19:00:00 19,2 16,2 19,5 7 4 15 8 NNW 1017,6 35 0,0
24.06.2019 18:00:00 20,1 16,5 22,6 6 4 19 10 NO 1017,4 39 0,0
24.06.2019 17:00:00 21,0 16,6 25,7 9 5 18 10 ONO 1017,5 41 0,0
24.06.2019 16:00:00 20,4 16,0 24,0 8 5 18 10 NNO 1017,5 20 0,0
24.06.2019 15:00:00 20,9 15,2 27,3 10 5 16 8 NNO 1017,5 29 0,0
24.06.2019 14:00:00 20,0 16,0 20,8 7 4 13 7 ONO 1018,1 9 0,0
24.06.2019 13:00:00 19,1 15,8 18,8 5 3 12 7 NNW 1018,2 28 0,2
24.06.2019 12:00:00 18,4 16,0 18,4 8 5 14 8 ZZW 1018,9 19 0,0
24.06.2019 11:00:00 17,7 15,1 17,9 6 3 19 11 W 1017,6 33 0,0
24.06.2019 10:00:00 18,2 15,6 18,6 6 3 19 11 NW 1016,6 19 0,0
24.06.2019 09:00:00 18,7 16,1 19,0 16 8 29 16 W 1016,7 19 0,0
24.06.2019 08:00:00 19,3 16,3 19,2 12 6 22 12 W 1015,9 32 0,0
24.06.2019 07:00:00 19,5 16,3 14,8 13 7 23 13 ZW 1015,2 51 0,0
24.06.2019 06:00:00 18,1 15,4 14,8 5 3 19 10 ZO 1014,4 60 0,0
24.06.2019 05:00:00 19,9 15,5 18,5 13 7 22 12 ZZW 1013,7 60 0,0
24.06.2019 04:00:00 20,7 15,7 19,3 13 7 22 12 Z 1013,8 60 0,0
24.06.2019 03:00:00 21,2 15,7 19,6 12 7 22 12 ZZO 1013,5 60 0,0
24.06.2019 02:00:00 22,1 15,7 20,1 8 5 25 13 ZO 1013,5 60 0,0
24.06.2019 01:00:00 22,5 16,1 20,8 9 5 20 11 OZO 1013,4 60 0,0
24.06.2019 00:00:00 22,8 16,1 21,1 7 4 22 12 ZO 1013,4 60 0,0
23.06.2019 23:00:00 23,0 16,3 21,1 7 4 21 11 ZO 1013,4 60 0,0
23.06.2019 22:00:00 23,3 16,6 21,7 7 4 19 11 ZO 1013,2 60 0,0
23.06.2019 21:00:00 24,0 16,8 24,3 7 4 21 11 OZO 1012,8 19 0,0
23.06.2019 20:00:00 25,1 17,0 25,5 7 4 23 12 ZO 1012,5 41 0,0
23.06.2019 19:00:00 24,9 15,8 25,4 9 5 31 17 OZO 1012,4 35 0,0
23.06.2019 18:00:00 25,7 15,7 28,5 10 5 38 20 ZO 1012,5 33 0,0
23.06.2019 17:00:00 26,0 15,1 26,4 13 7 38 20 ZO 1012,8 36 0,0
23.06.2019 16:00:00 25,1 13,9 27,4 16 8 41 22 ZO 1012,9 33 0,0
23.06.2019 15:00:00 25,5 16,4 28,1 16 8 40 22 OZO 1013,2 19 0,0
23.06.2019 14:00:00 23,8 15,8 26,7 18 10 34 18 O 1013,7 19 0,0
23.06.2019 13:00:00 22,9 15,5 25,5 12 7 26 14 O 1014,7 18 0,0
23.06.2019 12:00:00 22,1 15,2 25,2 12 6 28 15 O 1014,7 18 0,0
23.06.2019 11:00:00 22,3 15,2 27,6 11 6 23 13 OZO 1015,1 1,8 0,0
23.06.2019 10:00:00 21,5 15,3 22,6 11 6 23 12 O 1015,5 8 0,0
23.06.2019 09:00:00 18,4 13,5 16,0 14 8 27 14 O 1015,5 13 0,0
23.06.2019 08:00:00 15,9 12,5 14,0 12 6 27 15 O 1016,0 12 0,0
23.06.2019 07:00:00 14,6 11,9 12,2 11 6 21 11 O 1016,3 17 0,0
23.06.2019 06:00:00 13,9 11,8 11,0 9 5 18 10 O 1016,6 17 0,0
23.06.2019 05:00:00 13,6 11,5 10,3 9 5 19 10 ONO 1016,9 20 0,0
23.06.2019 04:00:00 13,4 11,5 10,9 8 4 17 9 ONO 1017,3 20 0,0
23.06.2019 03:00:00 13,7 11,6 10,8 8 4 15 8 ONO 1017,5 19 0,0
23.06.2019 02:00:00 13,6 11,5 9,8 8 4 16 9 ONO 1017,9 19 0,0
23.06.2019 01:00:00 13,6 11,1 9,4 6 3 14 8 NO 1018,4 31 0,0
23.06.2019 00:00:00 14,2 10,8 10,6 7 4 15 8 ONO 1018,4 40 0,0
22.06.2019 23:00:00 14,9 10,3 11,7 7 4 17 9 NO 1018,9 52 0,0
22.06.2019 22:00:00 16,4 10,7 14,4 10 5 26 14 NO 1018,7 60 0,0
22.06.2019 21:00:00 18,2 10,8 19,6 11 6 30 16 NO 1018,2 41 0,0
22.06.2019 20:00:00 19,7 10,9 25,2 14 7 29 16 NNO 1017,9 32 0,0
22.06.2019 19:00:00 20,5 11,7 28,3 16 9 33 18 NNO 1018,1 21 0,0
22.06.2019 18:00:00 21,1 12,0 25,3 19 10 31 17 NNO 1018,3 20 0,0
22.06.2019 17:00:00 21,5 11,8 23,8 17 9 30 16 NNW 1018,9 50 0,0
22.06.2019 16:00:00 21,4 11,1 26,4 10 6 25 14 N 1019,1 43 0,0
22.06.2019 15:00:00 20,7 10,2 27,7 10 5 25 13 NO 1019,7 48 0,0
22.06.2019 14:00:00 20,8 10,3 25,5 8 5 19 11 NNO 1020,3 4,4 0,0
22.06.2019 13:00:00 20,9 8,5 30,8 4 2 20 11 Z 1020,7 1,2 0,0
22.06.2019 12:00:00 20,1 10,5 29,5 7 4 16 9 O 1021,0 0,7 0,0
22.06.2019 11:00:00 19,0 10,5 23,2 5 3 16 9 OZO 1021,3 1,9 0,0
22.06.2019 10:00:00 17,1 10,7 18,0 8 4 16 9 OZO 1021,5 21 0,0
22.06.2019 09:00:00 14,4 10,6 13,6 7 4 16 9 O 1022,0 20 0,0
22.06.2019 08:00:00 12,0 11,8 8,1 6 4 12 6 ONO 1022,1 16 0,0
22.06.2019 07:00:00 9,5 9,4 2,5 3 1 8 5 NO 1022,4 0,7 0,0
22.06.2019 06:00:00 8,4 8,1 1,0 5 3 9 5 ONO 1022,4 0,8 0,0
22.06.2019 05:00:00 7,0 6,6 1,3 4 2 6 3 ONO 1022,5 0,5 0,0
22.06.2019 04:00:00 8,0 7,6 1,3 5 3 8 4 N 1022,7 1,8 0,0
22.06.2019 03:00:00 8,6 8,2 1,9 5 3 8 4 NO 1022,9 16 0,0
22.06.2019 02:00:00 8,4 7,6 2,5 2 1 6 4 NO 1023,3 57 0,0
22.06.2019 01:00:00 9,0 8,1 2,7 4 2 6 4 NO 1023,2 20 0,0
22.06.2019 00:00:00 9,4 7,8 3,7 2 1 7 4 ONO 1023,3 59 0,0
21.06.2019 23:00:00 10,9 8,1 5,4 4 2 13 7 N 1023,2 60 0,0
21.06.2019 22:00:00 13,4 8,9 10,7 5 3 14 7 N 1022,9 60 0,0
21.06.2019 21:00:00 16,1 9,5 18,7 9 5 21 12 NNW 1022,3 32 0,0
21.06.2019 20:00:00 16,9 9,1 19,8 13 7 22 12 NNW 1022,1 29 0,0
21.06.2019 19:00:00 18,1 8,4 24,1 11 6 26 14 NNW 1021,8 26 0,0
21.06.2019 18:00:00 18,1 9,4 25,7 10 6 24 13 N 1021,7 28 0,0
21.06.2019 17:00:00 18,2 9,5 26,5 11 6 24 13 NNW 1021,9 31 0,0
21.06.2019 16:00:00 17,4 9,8 25,8 11 6 24 13 N 1021,9 32 0,0
21.06.2019 15:00:00 17,2 10,1 21,3 10 5 21 12 NNW 1022,0 36 0,0
21.06.2019 14:00:00 16,3 10,6 19,7 13 7 31 17 NW 1022,2 25 0,0
21.06.2019 13:00:00 16,6 11,7 - 11 6 24 13 W 1022,0 20 0,0
21.06.2019 12:00:00 15,8 10,1 - 13 7 24 13 WNW 1021,8 20 0,0
21.06.2019 11:00:00 15,1 11,3 - 14 8 25 13 W 1021,5 33 0,0
21.06.2019 10:00:00 15,2 12,0 - 10 5 21 12 WNW 1021,4 31 0,0
21.06.2019 09:00:00 13,2 11,9 - 7 4 16 9 WZW 1021,2 19 0,0
21.06.2019 08:00:00 12,2 11,7 - 9 5 15 8 W 1020,8 15 0,0
21.06.2019 07:00:00 10,5 10,2 - 6 3 10 5 W 1020,5 10 0,0
21.06.2019 06:00:00 9,5 9,0 - 6 4 18 10 WZW 1020,5 6 0,0
21.06.2019 05:00:00 9,3 8,8 - 5 3 15 8 W 1020,2 14 0,2
21.06.2019 04:00:00 9,7 9,2 - 11 6 18 10 ZW 1020,3 19 0,0
21.06.2019 03:00:00 9,4 8,9 - 11 6 16 9 ZW 1020,1 49 0,0
21.06.2019 02:00:00 9,1 8,5 - 5 3 14 8 ZW 1020,1 19 0,0
21.06.2019 01:00:00 9,7 9,1 - 10 5 16 9 ZW 1019,6 58 0,0
21.06.2019 00:00:00 10,1 9,5 - 5 3 6 3 Z 1019,3 15 0,0
20.06.2019 23:00:00 10,0 8,6 - 3 1 9 5 W 1018,9 1,4 0,0
20.06.2019 22:00:00 12,9 10,3 - 5 3 11 6 NW 1018,3 55 0,0
20.06.2019 21:00:00 15,4 10,4 - 6 4 19 10 NW 1017,8 55 0,0
20.06.2019 20:00:00 16,4 9,6 - 11 6 24 13 W 1017,5 38 0,0
20.06.2019 19:00:00 16,8 11,5 - 9 5 25 13 WNW 1017,5 46 0,0
20.06.2019 18:00:00 15,8 10,8 - 10 6 28 15 WNW 1017,3 50 0,0
20.06.2019 17:00:00 15,6 11,0 - 11 6 22 12 NNW 1017,2 51 0,0
20.06.2019 16:00:00 16,3 9,7 - 15 8 30 16 WNW 1017,1 44 0,0
20.06.2019 15:00:00 16,2 9,6 - 16 8 29 16 W 1017,1 26 0,0
20.06.2019 14:00:00 16,5 11,4 24,6 15 8 31 17 WNW 1016,8 28 0,0
20.06.2019 13:00:00 16,0 11,0 20,7 16 8 34 18 WNW 1016,7 20 0,0
20.06.2019 12:00:00 14,4 9,8 16,8 17 9 39 21 WNW 1016,5 30 0,0
20.06.2019 11:00:00 14,6 10,4 14,8 23 12 36 20 W 1016,2 20 0,0
20.06.2019 10:00:00 15,0 11,9 14,0 23 12 37 20 W 1015,5 36 0,0

tt = temperatuur
td = dauwpunt
tt 5cm = temperatuur 5cm
ff = windsnelheid
fx = windstoten
dd = windrichting
ppp = luchtdruk
vv = zicht
rr = neerslag

Weerstations in de omgeving